SCP
0 0 -0 -0 -0 -0 0 0 0 -0 -0 0 0 0 -0 -0 -0 0 0 0 0 0
0 0 0 -0 -0 -0 -0 0 0 -0 0 0 -0 -0 -0 -0 -0 -0 0 -0 -0 0
-0 -0 -0 -0 -0 0 0 -0 0 -0 -0 0 -0 0 -0 -0 -0 -0 -0 0 -0 -0
0 -0 -0 -0 -0 0 0 0 -0 0 -0 0 -0 -0 -0 0 0 0 -0 -0 0 -0
0 0 -0 -0 -0 0 0 0 0 -0 -0 0 -0 -0 -0 0 0 0 0 0 -0 -0
0 0 0 -0 -0 -0 0 0 0 0 0 0 0 0 0 0 0 0 0 0 0 0
0 0 0 0 0 0 0 1 0 0 0 0 0 0 0 0 0 0 0 0 0 0
0 0 0 0 1 0 0 1 1 0 0 0 0 0 0 0 0 -0 -0 -0 0 0
0 0 0 0 0 0 0 0 1 1 1 0 0 0 0 0 0 0 0 -0 -0 -0
0 0 0 0 0 0 0 0 0 0 1 1 1 0 0 0 0 0 1 0 0 0
0 0 0 0 0 0 0 0 0 0 0 0 1 0 0 0 0 0 0 1 1 1
0 0 0 0 0 0 0 0 0 1 0 0 0 0 0 0 0 0 0 1 1 1
0 0 0 0 0 0 0 0 0 0 0 0 0 0 0 0 0 0 0 0 1 1
0 0 0 0 0 0 0 0 0 0 0 0 0 0 0 0 0 1 1 1 1 0
Wind_Speed_500mb
36 32 21 26 31 22 21 18 28 25 23 22 30 30 32 20 26 27 22 22 20 11
42 37 29 28 27 26 27 30 25 26 25 27 24 26 26 29 27 24 28 30 29 20
52 47 34 31 30 35 34 29 29 21 20 23 26 22 24 25 25 27 23 24 33 33
46 43 42 44 34 37 34 28 26 22 26 27 21 16 19 23 28 21 24 17 29 34
55 50 48 50 44 42 40 39 30 31 22 28 24 23 18 19 28 17 22 23 32 34
48 48 48 50 54 44 49 45 40 40 29 33 34 30 28 21 19 33 23 16 16 31
36 48 47 47 46 53 49 46 42 40 38 40 39 35 36 30 25 29 32 26 22 18
34 27 44 42 42 45 47 45 42 40 41 40 45 44 45 45 38 35 32 33 34 35
28 21 41 30 33 39 47 48 45 44 43 43 44 44 41 40 44 43 41 40 42 44
32 38 39 38 39 38 43 42 45 45 46 45 47 49 45 39 40 43 46 47 45 46
16 20 26 37 29 37 39 44 45 47 49 50 51 50 51 51 55 55 56 56 56 52
20 10 6 12 18 23 30 26 31 40 44 46 52 54 55 53 57 66 64 61 64 65
12 9 6 5 7 14 22 24 30 36 41 46 48 49 52 53 58 58 62 71 74 73
3 3 9 11 13 15 18 18 21 30 32 40 46 53 54 50 52 56 57 62 67 68
Wind_Direction_500mb
197 195 184 178 167 181 172 186 201 194 190 197 192 189 195 197 206 210 211 222 218 214
201 208 195 177 181 187 199 214 213 210 182 192 201 203 205 200 200 205 215 219 224 221
210 209 207 193 203 214 211 216 218 216 202 187 198 198 184 195 192 213 208 215 228 222
209 213 207 207 209 215 216 220 222 227 200 182 198 208 201 193 194 198 217 225 223 229
221 213 213 213 209 213 217 222 221 210 221 192 191 211 228 215 211 216 226 229 229 223
226 217 214 221 218 217 222 227 224 228 233 214 220 208 215 219 238 226 229 225 245 246
225 222 228 218 220 227 225 224 228 228 228 227 231 231 236 230 229 231 237 248 244 260
244 231 228 228 229 229 231 232 227 228 229 231 235 234 240 248 245 235 227 234 243 250
208 219 268 237 238 238 230 234 238 242 237 233 229 234 237 239 244 248 249 248 242 240
175 208 212 220 242 233 234 233 234 236 244 248 246 244 241 235 241 247 252 258 265 259
114 170 226 222 241 249 245 227 231 236 241 244 247 248 251 240 234 242 248 255 259 264
78 112 181 219 249 260 263 252 250 248 247 252 254 253 252 249 243 240 243 247 251 258
67 58 48 15 318 285 277 275 272 268 267 261 262 260 258 257 256 255 252 252 252 255
92 13 355 355 349 334 319 302 294 281 280 276 271 268 269 265 256 260 261 259 261 262
Wind_Speed_850mb
36 32 21 26 31 22 21 18 28 25 23 22 30 30 32 20 26 27 22 22 20 11
42 37 29 28 27 26 27 30 25 26 25 27 24 26 26 29 27 24 28 30 29 20
52 47 34 31 30 35 34 29 29 21 20 23 26 22 24 25 25 27 23 24 33 33
46 43 42 44 34 37 34 28 26 22 26 27 21 16 19 23 28 21 24 17 29 34
55 50 48 50 44 42 40 39 30 31 22 28 24 23 18 19 28 17 22 23 32 34
48 48 48 50 54 44 49 45 40 40 29 33 34 30 28 21 19 33 23 16 16 31
36 48 47 47 46 53 49 46 42 40 38 40 39 35 36 30 25 29 32 26 22 18
34 27 44 42 42 45 47 45 42 40 41 40 45 44 45 45 38 35 32 33 34 35
28 21 41 30 33 39 47 48 45 44 43 43 44 44 41 40 44 43 41 40 42 44
32 38 39 38 39 38 43 42 45 45 46 45 47 49 45 39 40 43 46 47 45 46
16 20 26 37 29 37 39 44 45 47 49 50 51 50 51 51 55 55 56 56 56 52
20 10 6 12 18 23 30 26 31 40 44 46 52 54 55 53 57 66 64 61 64 65
12 9 6 5 7 14 22 24 30 36 41 46 48 49 52 53 58 58 62 71 74 73
3 3 9 11 13 15 18 18 21 30 32 40 46 53 54 50 52 56 57 62 67 68
Wind_Direction_850mb
197 195 184 178 167 181 172 186 201 194 190 197 192 189 195 197 206 210 211 222 218 214
201 208 195 177 181 187 199 214 213 210 182 192 201 203 205 200 200 205 215 219 224 221
210 209 207 193 203 214 211 216 218 216 202 187 198 198 184 195 192 213 208 215 228 222
209 213 207 207 209 215 216 220 222 227 200 182 198 208 201 193 194 198 217 225 223 229
221 213 213 213 209 213 217 222 221 210 221 192 191 211 228 215 211 216 226 229 229 223
226 217 214 221 218 217 222 227 224 228 233 214 220 208 215 219 238 226 229 225 245 246
225 222 228 218 220 227 225 224 228 228 228 227 231 231 236 230 229 231 237 248 244 260
244 231 228 228 229 229 231 232 227 228 229 231 235 234 240 248 245 235 227 234 243 250
208 219 268 237 238 238 230 234 238 242 237 233 229 234 237 239 244 248 249 248 242 240
175 208 212 220 242 233 234 233 234 236 244 248 246 244 241 235 241 247 252 258 265 259
114 170 226 222 241 249 245 227 231 236 241 244 247 248 251 240 234 242 248 255 259 264
78 112 181 219 249 260 263 252 250 248 247 252 254 253 252 249 243 240 243 247 251 258
67 58 48 15 318 285 277 275 272 268 267 261 262 260 258 257 256 255 252 252 252 255
92 13 355 355 349 334 319 302 294 281 280 276 271 268 269 265 256 260 261 259 261 262